CW0343 Weather Reports


Display with metric or nautical units.
time (UTC)temp
F
wind
direction
speed
MPH
gust
MPH
rain 1hr
in
rain 24hr
in
rain mn
in
humidity
%
barometer
mb
20260504001804 77 61 4.0 8.0 0.00 0.00 0.00 71 1016.0
20260504001306 76 36 5.0 9.0 0.00 0.00 0.00 72 1016.1
20260504000804 76 71 5.0 9.0 0.00 0.00 0.00 72 1016.1
20260504000304 76 81 6.0 9.0 0.00 0.00 0.00 70 1016.2
20260503235804 76 55 4.0 8.0 0.00 0.00 0.00 72 1016.2
20260503235304 76 116 3.0 9.0 0.00 0.00 0.00 73 1016.1
20260503234804 76 71 2.0 8.0 0.00 0.00 0.00 73 1016.2
20260503234305 75 60 3.0 6.0 0.00 0.00 0.00 75 1016.1
20260503233804 75 78 3.0 7.0 0.00 0.00 0.00 75 1016.1
20260503233305 74 97 4.0 8.0 0.00 0.00 0.00 76 1016.2
20260503232804 74 90 3.0 3.0 0.00 0.00 0.00 77 1016.2
20260503232305 73 84 2.0 7.0 0.00 0.00 0.00 76 1016.2
20260503231804 73 92 4.0 7.0 0.00 0.00 0.00 77 1016.2
20260503231304 72 3 0.0 0.0 0.00 0.00 0.00 79 1016.1
20260503230817 72 3 0.0 0.0 0.00 0.00 0.00 79 1016.1
20260503230304 72 3 0.0 0.0 0.00 0.00 0.00 79 1016.0
20260503225804 72 53 3.0 3.0 0.00 0.00 0.00 79 1016.0
20260503225305 72 76 3.0 3.0 0.00 0.00 0.00 79 1016.0
20260503223804 71 85 5.0 8.0 0.00 0.00 0.00 79 1015.9
20260503223306 71 99 4.0 8.0 0.00 0.00 0.00 80 1015.8
20260503222304 71 92 5.0 8.0 0.00 0.00 0.00 79 1015.9
20260503221304 70 90 4.0 9.0 0.00 0.00 0.00 80 1015.7
20260503220305 70 90 2.0 3.0 0.00 0.00 0.00 80 1015.8
20260503215304 69 88 2.0 2.0 0.00 0.00 0.00 82 1015.9
20260503214804 69 88 1.0 3.0 0.00 0.00 0.00 82 1016.0
20260503214305 68 88 3.0 3.0 0.00 0.00 0.00 84 1016.0
20260503213805 68 88 3.0 3.0 0.00 0.00 0.00 84 1015.9
20260503213304 68 87 2.0 3.0 0.00 0.00 0.00 84 1015.9
20260503212805 67 87 2.0 3.0 0.00 0.00 0.00 84 1015.7
20260503212305 67 87 2.0 3.0 0.00 0.00 0.00 85 1015.7
20260503211805 66 87 2.0 5.0 0.00 0.00 0.00 85 1015.7
20260503211304 66 87 2.0 5.0 0.00 0.00 0.00 85 1015.6
20260503210804 65 89 2.0 5.0 0.00 0.00 0.00 85 1015.5
20260503210306 65 88 3.0 7.0 0.00 0.00 0.00 85 1015.4
20260503205304 65 91 3.0 7.0 0.00 0.00 0.00 85 1015.5
20260503204805 65 91 3.0 7.0 0.00 0.00 0.00 86 1015.4
20260503204304 65 96 5.0 7.0 0.00 0.00 0.00 86 1015.4
20260503203804 65 84 3.0 8.0 0.00 0.00 0.00 86 1015.4
20260503203304 64 90 4.0 10.0 0.00 0.00 0.00 85 1015.3
20260503202804 64 94 3.0 7.0 0.00 0.00 0.00 85 1015.2
20260503202305 65 98 1.0 3.0 0.00 0.00 0.00 85 1015.2
20260503201805 65 98 1.0 3.0 0.00 0.00 0.00 85 1015.3
20260503201305 65 98 0.0 2.0 0.00 0.00 0.00 85 1015.3
20260503200804 65 98 1.0 6.0 0.00 0.00 0.00 85 1015.3
20260503200304 64 99 2.0 3.0 0.00 0.00 0.00 85 1015.2
20260503195304 65 99 1.0 3.0 0.00 0.00 0.00 85 1015.1
20260503194305 65 100 1.0 3.0 0.00 0.00 0.00 85 1015.0
20260503193805 65 100 1.0 3.0 0.00 0.00 0.00 85 1015.0
20260503193305 65 101 0.0 3.0 0.00 0.00 0.00 85 1015.1
20260503192804 65 101 1.0 3.0 0.00 0.00 0.00 85 1015.0
20260503192306 65 101 3.0 6.0 0.00 0.00 0.00 85 1015.0
20260503191804 65 110 2.0 3.0 0.00 0.00 0.00 85 1015.1
20260503191305 65 110 2.0 6.0 0.00 0.00 0.00 85 1015.0
20260503190304 65 109 3.0 7.0 0.00 0.00 0.00 85 1014.9
20260503185804 65 133 1.0 5.0 0.00 0.00 0.00 85 1015.0
20260503185305 65 128 1.0 3.0 0.00 0.00 0.00 85 1015.0
20260503184804 65 123 1.0 3.0 0.00 0.00 0.00 84 1015.1
20260503184306 65 124 1.0 2.0 0.00 0.00 0.00 84 1015.2
20260503183305 65 126 0.0 2.0 0.00 0.00 0.00 84 1015.0
20260503182805 65 126 0.0 2.0 0.00 0.00 0.00 84 1015.0
20260503182305 65 126 2.0 3.0 0.00 0.00 0.00 84 1015.1
20260503181804 65 128 2.0 5.0 0.00 0.00 0.00 84 1015.0
20260503181304 65 132 2.0 3.0 0.00 0.00 0.00 84 1015.0
20260503180805 65 135 3.0 7.0 0.00 0.00 0.00 84 1015.0
20260503180304 65 119 3.0 7.0 0.00 0.00 0.00 84 1015.0
20260503175804 65 121 2.0 5.0 0.00 0.00 0.00 84 1014.9
20260503175305 65 112 5.0 8.0 0.00 0.00 0.00 84 1014.9
20260503174804 65 147 5.0 9.0 0.00 0.00 0.00 84 1014.8
20260503174304 65 127 5.0 9.0 0.00 0.00 0.00 84 1014.8
20260503173804 65 123 3.0 8.0 0.00 0.00 0.00 84 1014.9
20260503173305 65 131 3.0 8.0 0.00 0.00 0.00 84 1015.0
20260503172804 65 134 3.0 8.0 0.00 0.00 0.00 84 1015.0
20260503172305 65 130 3.0 7.0 0.00 0.00 0.00 84 1015.1
20260503171804 65 133 3.0 8.0 0.00 0.00 0.00 84 1015.2
20260503171305 65 127 4.0 12.0 0.00 0.00 0.00 84 1015.1
20260503170804 65 124 3.0 8.0 0.00 0.00 0.00 84 1015.1
20260503170304 65 126 3.0 7.0 0.00 0.00 0.00 84 1015.1
20260503140304 67 140 3.0 6.0 0.00 0.00 0.00 82 1016.3
20260503131304 67 96 1.0 3.0 0.00 0.00 0.00 82 1016.5
20260503130805 67 96 1.0 3.0 0.00 0.00 0.00 82 1016.5
20260503130304 67 96 3.0 7.0 0.00 0.00 0.00 82 1016.6
20260503110805 69 149 1.0 3.0 0.00 0.00 0.00 81 1016.7
20260503110304 69 149 1.0 7.0 0.00 0.00 0.00 81 1016.6
20260503090304 72 49 1.0 2.0 0.00 0.00 0.00 79 1015.1
20260503080804 75 44 1.0 3.0 0.00 0.00 0.00 76 1014.6
20260503080305 75 44 2.0 3.0 0.00 0.00 0.00 75 1014.5
20260503072804 78 40 2.0 2.0 0.00 0.00 0.00 71 1014.1
20260503071804 79 48 5.0 8.0 0.00 0.00 0.00 71 1014.0
20260503071304 79 45 3.0 5.0 0.00 0.00 0.00 69 1014.0
20260503070805 79 53 3.0 3.0 0.00 0.00 0.00 69 1013.8
20260503060304 81 65 4.0 7.0 0.00 0.00 0.00 66 1013.6
20260503054304 81 39 5.0 6.0 0.00 0.00 0.00 67 1013.7
20260503053804 82 3 0.0 0.0 0.00 0.00 0.00 64 1013.7
20260503052805 82 3 0.0 7.0 0.00 0.00 0.00 64 1013.8
20260503052305 82 92 7.0 7.0 0.00 0.00 0.00 64 1013.8
20260503051806 82 92 7.0 7.0 0.00 0.00 0.00 64 1013.8
20260503051306 82 78 3.0 9.0 0.00 0.00 0.00 64 1013.8
20260503050805 82 3 0.0 0.0 0.00 0.00 0.00 63 1013.8
20260503045805 82 3 0.0 6.0 0.00 0.00 0.00 63 1013.6
20260503044804 82 67 6.0 6.0 0.00 0.00 0.00 63 1013.7
20260503043804 82 26 6.0 10.0 0.00 0.00 0.00 64 1013.8
20260503043305 82 44 4.0 8.0 0.00 0.00 0.00 63 1013.8
20260503042804 82 76 8.0 12.0 0.00 0.00 0.00 63 1014.0
20260503042305 82 72 6.0 10.0 0.00 0.00 0.00 63 1014.0
20260503041804 82 81 6.0 12.0 0.00 0.00 0.00 62 1014.1
20260503040805 83 3 0.0 0.0 0.00 0.00 0.00 58 1014.3
20260503040304 83 3 0.0 0.0 0.00 0.00 0.00 58 1014.3
20260503035805 83 3 0.0 8.0 0.00 0.00 0.00 58 1014.4
20260503035305 83 88 8.0 8.0 0.00 0.00 0.00 58 1014.4
20260503034805 83 88 8.0 8.0 0.00 0.00 0.00 58 1014.4
20260503034304 83 113 6.0 9.0 0.00 0.00 0.00 58 1014.4
20260503033804 84 96 7.0 12.0 0.00 0.00 0.00 58 1014.5
20260503033305 83 61 2.0 8.0 0.00 0.00 0.00 58 1014.5
20260503032804 83 60 5.0 10.0 0.00 0.00 0.00 58 1014.5
20260503032305 83 32 3.0 6.0 0.00 0.00 0.00 60 1014.6
20260503031804 82 58 5.0 12.0 0.00 0.00 0.00 60 1014.6
20260503031304 82 103 6.0 10.0 0.00 0.00 0.00 60 1014.8
20260503030805 81 101 4.0 7.0 0.00 0.00 0.00 60 1014.8
20260503030305 82 115 7.0 9.0 0.00 0.00 0.00 60 1014.9
20260503025805 82 109 6.0 7.0 0.00 0.00 0.00 61 1015.0
20260503025306 82 108 5.0 7.0 0.00 0.00 0.00 61 1015.3
20260503024805 82 108 1.0 6.0 0.00 0.00 0.00 60 1015.3
20260503023805 82 142 3.0 6.0 0.00 0.00 0.00 60 1015.5
20260503023304 82 125 5.0 8.0 0.00 0.00 0.00 60 1015.6
20260503022805 82 104 6.0 9.0 0.00 0.00 0.00 59 1015.7
20260503022305 82 85 3.0 9.0 0.00 0.00 0.00 58 1015.8
20260503021804 82 64 3.0 7.0 0.00 0.00 0.00 60 1016.0
20260503021304 82 80 6.0 10.0 0.00 0.00 0.00 60 1016.1
20260503020804 82 116 7.0 12.0 0.00 0.00 0.00 59 1016.1
20260503020305 82 78 3.0 5.0 0.00 0.00 0.00 60 1016.1
20260503015305 80 143 3.0 7.0 0.00 0.00 0.00 61 1016.3
20260503014805 80 80 4.0 8.0 0.00 0.00 0.00 62 1016.4
20260503014305 80 117 7.0 12.0 0.00 0.00 0.00 63 1016.5
20260503013805 80 78 6.0 9.0 0.00 0.00 0.00 62 1016.4
20260503013304 80 129 3.0 7.0 0.00 0.00 0.00 62 1016.6
20260503012305 81 105 3.0 7.0 0.00 0.00 0.00 62 1016.7
20260503011805 81 98 6.0 9.0 0.00 0.00 0.00 63 1016.8
20260503011305 80 111 3.0 7.0 0.00 0.00 0.00 64 1016.8
20260503010304 80 114 5.0 9.0 0.00 0.00 0.00 64 1017.0
20260503005305 79 52 3.0 7.0 0.00 0.00 0.00 66 1017.1
20260503004304 79 86 6.0 8.0 0.00 0.00 0.00 67 1017.3
20260503003805 79 224 2.0 7.0 0.00 0.00 0.00 67 1017.2
20260503003304 78 149 5.0 9.0 0.00 0.00 0.00 67 1017.3
20260503002305 77 136 5.0 9.0 0.00 0.00 0.00 68 1017.2